#datetime,building,power
2022-01-31T00:00:00,mnr,6.98
2022-01-31T00:01:00,mnr,7.24
2022-01-31T00:02:00,mnr,7.40
2022-01-31T00:03:00,mnr,7.81
2022-01-31T00:04:00,mnr,7.72
2022-01-31T00:05:00,mnr,7.65
2022-01-31T00:06:00,mnr,7.38
2022-01-31T00:07:00,mnr,7.22
2022-01-31T00:08:00,mnr,7.20
2022-01-31T00:09:00,mnr,7.09
2022-01-31T00:10:00,mnr,7.18
2022-01-31T00:11:00,mnr,7.11
2022-01-31T00:12:00,mnr,19.70
2022-01-31T00:13:00,mnr,8.66
2022-01-31T00:14:00,mnr,8.67
2022-01-31T00:15:00,mnr,8.83
2022-01-31T00:16:00,mnr,8.64
2022-01-31T00:17:00,mnr,8.54
2022-01-31T00:18:00,mnr,8.46
2022-01-31T00:19:00,mnr,8.48
2022-01-31T00:20:00,mnr,8.43
2022-01-31T00:21:00,mnr,8.47
2022-01-31T00:22:00,mnr,8.87
2022-01-31T00:23:00,mnr,9.13
2022-01-31T00:24:00,mnr,9.67
2022-01-31T00:25:00,mnr,8.98
2022-01-31T00:26:00,mnr,8.50
2022-01-31T00:27:00,mnr,9.06
2022-01-31T00:28:00,mnr,8.26
2022-01-31T00:29:00,mnr,8.22
2022-01-31T00:30:00,mnr,9.66
2022-01-31T00:31:00,mnr,8.29
2022-01-31T00:32:00,mnr,8.27
2022-01-31T00:33:00,mnr,8.37
2022-01-31T00:34:00,mnr,8.42
2022-01-31T00:35:00,mnr,8.39
2022-01-31T00:36:00,mnr,8.79
2022-01-31T00:37:00,mnr,8.59
2022-01-31T00:38:00,mnr,10.25
2022-01-31T00:39:00,mnr,9.28
2022-01-31T00:40:00,mnr,8.87
2022-01-31T00:41:00,mnr,9.40
2022-01-31T00:42:00,mnr,8.73
2022-01-31T00:43:00,mnr,9.19
2022-01-31T00:44:00,mnr,9.02
2022-01-31T00:45:00,mnr,8.76
2022-01-31T00:46:00,mnr,8.76
2022-01-31T00:47:00,mnr,9.03
2022-01-31T00:48:00,mnr,8.67
2022-01-31T00:49:00,mnr,8.70
2022-01-31T00:50:00,mnr,8.85
2022-01-31T00:51:00,mnr,8.76
2022-01-31T00:52:00,mnr,8.72
2022-01-31T00:53:00,mnr,8.76
2022-01-31T00:54:00,mnr,9.96
2022-01-31T00:55:00,mnr,8.79
2022-01-31T00:56:00,mnr,9.16
2022-01-31T00:57:00,mnr,8.99
2022-01-31T00:58:00,mnr,8.83
2022-01-31T00:59:00,mnr,8.90
2022-01-31T01:00:00,mnr,8.92
2022-01-31T01:01:00,mnr,9.13
2022-01-31T01:02:00,mnr,8.90
2022-01-31T01:03:00,mnr,8.91
2022-01-31T01:04:00,mnr,8.86
2022-01-31T01:05:00,mnr,8.76
2022-01-31T01:06:00,mnr,10.46
2022-01-31T01:07:00,mnr,8.89
2022-01-31T01:08:00,mnr,9.09
2022-01-31T01:09:00,mnr,8.91
2022-01-31T01:10:00,mnr,8.93
2022-01-31T01:11:00,mnr,8.93
2022-01-31T01:12:00,mnr,8.94
2022-01-31T01:13:00,mnr,9.90
2022-01-31T01:14:00,mnr,9.47
2022-01-31T01:15:00,mnr,8.27
2022-01-31T01:16:00,mnr,8.95
2022-01-31T01:17:00,mnr,8.83
2022-01-31T01:18:00,mnr,8.63
2022-01-31T01:19:00,mnr,8.11
2022-01-31T01:20:00,mnr,8.09
2022-01-31T01:21:00,mnr,8.09
2022-01-31T01:22:00,mnr,8.63
2022-01-31T01:23:00,mnr,8.13
2022-01-31T01:24:00,mnr,8.28
2022-01-31T01:25:00,mnr,7.94
2022-01-31T01:26:00,mnr,8.43
2022-01-31T01:27:00,mnr,9.97
2022-01-31T01:28:00,mnr,8.41
2022-01-31T01:29:00,mnr,8.12
2022-01-31T01:30:00,mnr,8.27
2022-01-31T01:31:00,mnr,8.20
2022-01-31T01:32:00,mnr,8.17
2022-01-31T01:33:00,mnr,8.16
2022-01-31T01:34:00,mnr,8.17
2022-01-31T01:35:00,mnr,8.17
2022-01-31T01:36:00,mnr,8.05
2022-01-31T01:37:00,mnr,8.35
2022-01-31T01:38:00,mnr,8.76
2022-01-31T01:39:00,mnr,9.11
2022-01-31T01:40:00,mnr,8.27
2022-01-31T01:41:00,mnr,8.49
2022-01-31T01:42:00,mnr,8.31
2022-01-31T01:43:00,mnr,8.45
2022-01-31T01:44:00,mnr,8.20
2022-01-31T01:45:00,mnr,8.78
2022-01-31T01:46:00,mnr,9.41
2022-01-31T01:47:00,mnr,9.01
2022-01-31T01:48:00,mnr,8.27
2022-01-31T01:49:00,mnr,8.23
2022-01-31T01:50:00,mnr,8.84
2022-01-31T01:51:00,mnr,9.02
2022-01-31T01:52:00,mnr,9.45
2022-01-31T01:53:00,mnr,9.40
2022-01-31T01:54:00,mnr,9.45
2022-01-31T01:55:00,mnr,9.39
2022-01-31T01:56:00,mnr,9.29
2022-01-31T01:57:00,mnr,9.24
2022-01-31T01:58:00,mnr,9.93
2022-01-31T01:59:00,mnr,9.63
2022-01-31T02:00:00,mnr,9.12
2022-01-31T02:01:00,mnr,9.64
2022-01-31T02:02:00,mnr,9.64
2022-01-31T02:03:00,mnr,9.15
2022-01-31T02:04:00,mnr,9.87
2022-01-31T02:05:00,mnr,9.23
2022-01-31T02:06:00,mnr,9.36
2022-01-31T02:07:00,mnr,9.40
2022-01-31T02:08:00,mnr,8.84
2022-01-31T02:09:00,mnr,9.03
2022-01-31T02:10:00,mnr,8.52
2022-01-31T02:11:00,mnr,8.53
2022-01-31T02:12:00,mnr,8.49
2022-01-31T02:13:00,mnr,9.54
2022-01-31T02:14:00,mnr,9.49
2022-01-31T02:15:00,mnr,8.08
2022-01-31T02:16:00,mnr,8.20
2022-01-31T02:17:00,mnr,9.28
2022-01-31T02:18:00,mnr,9.58
2022-01-31T02:19:00,mnr,9.25
2022-01-31T02:20:00,mnr,9.31
2022-01-31T02:21:00,mnr,9.22
2022-01-31T02:22:00,mnr,9.18
2022-01-31T02:23:00,mnr,9.23
2022-01-31T02:24:00,mnr,9.20
2022-01-31T02:25:00,mnr,9.87
2022-01-31T02:26:00,mnr,9.74
2022-01-31T02:27:00,mnr,9.40
2022-01-31T02:28:00,mnr,9.33
2022-01-31T02:29:00,mnr,9.36
2022-01-31T02:30:00,mnr,9.91
2022-01-31T02:31:00,mnr,9.19
2022-01-31T02:32:00,mnr,10.43
2022-01-31T02:33:00,mnr,10.22
2022-01-31T02:34:00,mnr,10.47
2022-01-31T02:35:00,mnr,9.01
2022-01-31T02:36:00,mnr,9.26
2022-01-31T02:37:00,mnr,9.18
2022-01-31T02:38:00,mnr,10.00
2022-01-31T02:39:00,mnr,10.24
2022-01-31T02:40:00,mnr,9.66
2022-01-31T02:41:00,mnr,9.31
2022-01-31T02:42:00,mnr,8.97
2022-01-31T02:43:00,mnr,9.00
2022-01-31T02:44:00,mnr,9.88
2022-01-31T02:45:00,mnr,8.77
2022-01-31T02:46:00,mnr,8.94
2022-01-31T02:47:00,mnr,9.62
2022-01-31T02:48:00,mnr,10.40
2022-01-31T02:49:00,mnr,9.83
2022-01-31T02:50:00,mnr,9.87
2022-01-31T02:51:00,mnr,10.69
2022-01-31T02:52:00,mnr,9.70
2022-01-31T02:53:00,mnr,9.77
2022-01-31T02:54:00,mnr,9.68
2022-01-31T02:55:00,mnr,9.67
2022-01-31T02:56:00,mnr,9.68
2022-01-31T02:57:00,mnr,10.31
2022-01-31T02:58:00,mnr,10.04
2022-01-31T02:59:00,mnr,9.53
2022-01-31T03:00:00,mnr,10.24
2022-01-31T03:01:00,mnr,9.60
2022-01-31T03:02:00,mnr,9.57
2022-01-31T03:03:00,mnr,9.59
2022-01-31T03:04:00,mnr,9.44
2022-01-31T03:05:00,mnr,9.61
2022-01-31T03:06:00,mnr,9.60
2022-01-31T03:07:00,mnr,9.62
2022-01-31T03:08:00,mnr,9.54
2022-01-31T03:09:00,mnr,9.52
2022-01-31T03:10:00,mnr,9.83
2022-01-31T03:11:00,mnr,10.05
2022-01-31T03:12:00,mnr,9.50
2022-01-31T03:13:00,mnr,9.09
2022-01-31T03:14:00,mnr,9.01
2022-01-31T03:15:00,mnr,8.82
2022-01-31T03:16:00,mnr,8.60
2022-01-31T03:17:00,mnr,8.58
2022-01-31T03:18:00,mnr,8.59
2022-01-31T03:19:00,mnr,8.87
2022-01-31T03:20:00,mnr,9.22
2022-01-31T03:21:00,mnr,8.98
2022-01-31T03:22:00,mnr,9.41
2022-01-31T03:23:00,mnr,9.03
2022-01-31T03:24:00,mnr,8.87
2022-01-31T03:25:00,mnr,8.54
2022-01-31T03:26:00,mnr,8.54
2022-01-31T03:27:00,mnr,8.68
2022-01-31T03:28:00,mnr,8.61
2022-01-31T03:29:00,mnr,8.54
2022-01-31T03:30:00,mnr,9.15
2022-01-31T03:31:00,mnr,8.51
2022-01-31T03:32:00,mnr,8.58
2022-01-31T03:33:00,mnr,8.54
2022-01-31T03:34:00,mnr,8.89
2022-01-31T03:35:00,mnr,8.60
2022-01-31T03:36:00,mnr,8.60
2022-01-31T03:37:00,mnr,8.68
2022-01-31T03:38:00,mnr,8.66
2022-01-31T03:39:00,mnr,9.05
2022-01-31T03:40:00,mnr,8.98
2022-01-31T03:41:00,mnr,8.66
2022-01-31T03:42:00,mnr,8.63
2022-01-31T03:43:00,mnr,8.73
2022-01-31T03:44:00,mnr,8.68
2022-01-31T03:45:00,mnr,8.72
2022-01-31T03:46:00,mnr,8.79
2022-01-31T03:47:00,mnr,9.55
2022-01-31T03:48:00,mnr,9.35
2022-01-31T03:49:00,mnr,8.61
2022-01-31T03:50:00,mnr,8.08
2022-01-31T03:51:00,mnr,8.41
2022-01-31T03:52:00,mnr,7.85
2022-01-31T03:53:00,mnr,8.74
2022-01-31T03:54:00,mnr,7.45
2022-01-31T03:55:00,mnr,7.49
2022-01-31T03:56:00,mnr,7.64
2022-01-31T03:57:00,mnr,8.12
2022-01-31T03:58:00,mnr,8.64
2022-01-31T03:59:00,mnr,8.11
2022-01-31T04:00:00,mnr,7.28
2022-01-31T04:01:00,mnr,7.24
2022-01-31T04:02:00,mnr,7.30
2022-01-31T04:03:00,mnr,7.28
2022-01-31T04:04:00,mnr,7.21
2022-01-31T04:05:00,mnr,7.19
2022-01-31T04:06:00,mnr,7.23
2022-01-31T04:07:00,mnr,7.21
2022-01-31T04:08:00,mnr,7.87
2022-01-31T04:09:00,mnr,7.27
2022-01-31T04:10:00,mnr,7.73
2022-01-31T04:11:00,mnr,7.26
2022-01-31T04:12:00,mnr,7.71
2022-01-31T04:13:00,mnr,7.26
2022-01-31T04:14:00,mnr,7.17
2022-01-31T04:15:00,mnr,7.53
2022-01-31T04:16:00,mnr,7.66
2022-01-31T04:17:00,mnr,7.17
2022-01-31T04:18:00,mnr,7.42
2022-01-31T04:19:00,mnr,7.14
2022-01-31T04:20:00,mnr,7.29
2022-01-31T04:21:00,mnr,7.31
2022-01-31T04:22:00,mnr,7.95
2022-01-31T04:23:00,mnr,7.31
2022-01-31T04:24:00,mnr,8.04
2022-01-31T04:25:00,mnr,7.32
2022-01-31T04:26:00,mnr,7.25
2022-01-31T04:27:00,mnr,7.86
2022-01-31T04:28:00,mnr,7.36
2022-01-31T04:29:00,mnr,8.22
2022-01-31T04:30:00,mnr,8.50
2022-01-31T04:31:00,mnr,8.32
2022-01-31T04:32:00,mnr,7.33
2022-01-31T04:33:00,mnr,7.26
2022-01-31T04:34:00,mnr,7.31
2022-01-31T04:35:00,mnr,7.75
2022-01-31T04:36:00,mnr,7.21
2022-01-31T04:37:00,mnr,7.32
2022-01-31T04:38:00,mnr,7.24
2022-01-31T04:39:00,mnr,7.17
2022-01-31T04:40:00,mnr,7.21
2022-01-31T04:41:00,mnr,7.37
2022-01-31T04:42:00,mnr,6.99
2022-01-31T04:43:00,mnr,7.71
2022-01-31T04:44:00,mnr,7.04
2022-01-31T04:45:00,mnr,7.75
2022-01-31T04:46:00,mnr,7.13
2022-01-31T04:47:00,mnr,7.59
2022-01-31T04:48:00,mnr,7.63
2022-01-31T04:49:00,mnr,8.62
2022-01-31T04:50:00,mnr,7.79
2022-01-31T04:51:00,mnr,7.45
2022-01-31T04:52:00,mnr,7.98
2022-01-31T04:53:00,mnr,7.10
2022-01-31T04:54:00,mnr,7.15
2022-01-31T04:55:00,mnr,7.12
2022-01-31T04:56:00,mnr,7.14
2022-01-31T04:57:00,mnr,8.02
2022-01-31T04:58:00,mnr,7.13
2022-01-31T04:59:00,mnr,7.16
2022-01-31T05:00:00,mnr,7.20
2022-01-31T05:01:00,mnr,7.50
2022-01-31T05:02:00,mnr,9.77
2022-01-31T05:03:00,mnr,12.15
2022-01-31T05:04:00,mnr,13.70
2022-01-31T05:05:00,mnr,12.93
2022-01-31T05:06:00,mnr,12.45
2022-01-31T05:07:00,mnr,13.43
2022-01-31T05:08:00,mnr,12.52
2022-01-31T05:09:00,mnr,13.17
2022-01-31T05:10:00,mnr,12.50
2022-01-31T05:11:00,mnr,13.33
2022-01-31T05:12:00,mnr,12.51
2022-01-31T05:13:00,mnr,12.66
2022-01-31T05:14:00,mnr,13.37
2022-01-31T05:15:00,mnr,12.40
2022-01-31T05:16:00,mnr,12.46
2022-01-31T05:17:00,mnr,12.72
2022-01-31T05:18:00,mnr,13.54
2022-01-31T05:19:00,mnr,12.83
2022-01-31T05:20:00,mnr,12.87
2022-01-31T05:21:00,mnr,12.44
2022-01-31T05:22:00,mnr,12.88
2022-01-31T05:23:00,mnr,12.33
2022-01-31T05:24:00,mnr,12.96
2022-01-31T05:25:00,mnr,13.99
2022-01-31T05:26:00,mnr,14.09
2022-01-31T05:27:00,mnr,14.11
2022-01-31T05:28:00,mnr,14.62
2022-01-31T05:29:00,mnr,14.13
2022-01-31T05:30:00,mnr,14.56
2022-01-31T05:31:00,mnr,14.01
2022-01-31T05:32:00,mnr,14.12
2022-01-31T05:33:00,mnr,14.74
2022-01-31T05:34:00,mnr,14.13
2022-01-31T05:35:00,mnr,14.00
2022-01-31T05:36:00,mnr,14.10
2022-01-31T05:37:00,mnr,14.48
2022-01-31T05:38:00,mnr,14.19
2022-01-31T05:39:00,mnr,14.96
2022-01-31T05:40:00,mnr,13.94
2022-01-31T05:41:00,mnr,15.19
2022-01-31T05:42:00,mnr,14.71
2022-01-31T05:43:00,mnr,14.83
2022-01-31T05:44:00,mnr,15.45
2022-01-31T05:45:00,mnr,14.72
2022-01-31T05:46:00,mnr,14.47
2022-01-31T05:47:00,mnr,14.31
2022-01-31T05:48:00,mnr,14.36
2022-01-31T05:49:00,mnr,15.02
2022-01-31T05:50:00,mnr,14.40
2022-01-31T05:51:00,mnr,14.28
2022-01-31T05:52:00,mnr,15.04
2022-01-31T05:53:00,mnr,14.27
2022-01-31T05:54:00,mnr,14.31
2022-01-31T05:55:00,mnr,14.16
2022-01-31T05:56:00,mnr,15.03
2022-01-31T05:57:00,mnr,15.29
2022-01-31T05:58:00,mnr,15.53
2022-01-31T05:59:00,mnr,15.47
2022-01-31T06:00:00,mnr,15.14
2022-01-31T06:01:00,mnr,15.17
2022-01-31T06:02:00,mnr,14.44
2022-01-31T06:03:00,mnr,14.42
2022-01-31T06:04:00,mnr,14.14
2022-01-31T06:05:00,mnr,14.50
2022-01-31T06:06:00,mnr,14.22
2022-01-31T06:07:00,mnr,14.25
2022-01-31T06:08:00,mnr,14.21
2022-01-31T06:09:00,mnr,14.91
2022-01-31T06:10:00,mnr,14.24
2022-01-31T06:11:00,mnr,14.21
2022-01-31T06:12:00,mnr,15.19
2022-01-31T06:13:00,mnr,15.17
2022-01-31T06:14:00,mnr,15.27
2022-01-31T06:15:00,mnr,15.95
2022-01-31T06:16:00,mnr,15.30
2022-01-31T06:17:00,mnr,15.31
2022-01-31T06:18:00,mnr,15.19
2022-01-31T06:19:00,mnr,15.80
2022-01-31T06:20:00,mnr,14.82
2022-01-31T06:21:00,mnr,14.78
2022-01-31T06:22:00,mnr,15.35
2022-01-31T06:23:00,mnr,14.27
2022-01-31T06:24:00,mnr,14.76
2022-01-31T06:25:00,mnr,14.73
2022-01-31T06:26:00,mnr,14.40
2022-01-31T06:27:00,mnr,14.41
2022-01-31T06:28:00,mnr,14.36
2022-01-31T06:29:00,mnr,15.03
2022-01-31T06:30:00,mnr,14.39
2022-01-31T06:31:00,mnr,14.60
2022-01-31T06:32:00,mnr,14.99
2022-01-31T06:33:00,mnr,14.76
2022-01-31T06:34:00,mnr,14.80
2022-01-31T06:35:00,mnr,14.52
2022-01-31T06:36:00,mnr,14.21
2022-01-31T06:37:00,mnr,14.16
2022-01-31T06:38:00,mnr,14.19
2022-01-31T06:39:00,mnr,14.15
2022-01-31T06:40:00,mnr,14.12
2022-01-31T06:41:00,mnr,14.11
2022-01-31T06:42:00,mnr,14.19
2022-01-31T06:43:00,mnr,14.25
2022-01-31T06:44:00,mnr,15.00
2022-01-31T06:45:00,mnr,14.64
2022-01-31T06:46:00,mnr,14.73
2022-01-31T06:47:00,mnr,15.53
2022-01-31T06:48:00,mnr,15.30
2022-01-31T06:49:00,mnr,14.55
2022-01-31T06:50:00,mnr,16.86
2022-01-31T06:51:00,mnr,13.83
2022-01-31T06:52:00,mnr,15.05
2022-01-31T06:53:00,mnr,14.36
2022-01-31T06:54:00,mnr,14.38
2022-01-31T06:55:00,mnr,14.36
2022-01-31T06:56:00,mnr,14.17
2022-01-31T06:57:00,mnr,14.22
2022-01-31T06:58:00,mnr,14.11
2022-01-31T06:59:00,mnr,14.13
2022-01-31T07:00:00,mnr,14.04
2022-01-31T07:01:00,mnr,14.04
2022-01-31T07:02:00,mnr,14.03
2022-01-31T07:03:00,mnr,14.28
2022-01-31T07:04:00,mnr,14.08
2022-01-31T07:05:00,mnr,14.11
2022-01-31T07:06:00,mnr,14.49
2022-01-31T07:07:00,mnr,14.40
2022-01-31T07:08:00,mnr,14.08
2022-01-31T07:09:00,mnr,13.97
2022-01-31T07:10:00,mnr,13.88
2022-01-31T07:11:00,mnr,13.91
2022-01-31T07:12:00,mnr,13.86
2022-01-31T07:13:00,mnr,13.75
2022-01-31T07:14:00,mnr,13.87
2022-01-31T07:15:00,mnr,13.23
2022-01-31T07:16:00,mnr,13.28
2022-01-31T07:17:00,mnr,14.11
2022-01-31T07:18:00,mnr,15.01
2022-01-31T07:19:00,mnr,13.12
2022-01-31T07:20:00,mnr,12.74
2022-01-31T07:21:00,mnr,12.62
2022-01-31T07:22:00,mnr,12.36
2022-01-31T07:23:00,mnr,12.37
2022-01-31T07:24:00,mnr,12.60
2022-01-31T07:25:00,mnr,13.59
2022-01-31T07:26:00,mnr,12.54
2022-01-31T07:27:00,mnr,12.54
2022-01-31T07:28:00,mnr,13.67
2022-01-31T07:29:00,mnr,13.10
2022-01-31T07:30:00,mnr,13.12
2022-01-31T07:31:00,mnr,12.89
2022-01-31T07:32:00,mnr,12.69
2022-01-31T07:33:00,mnr,13.30
2022-01-31T07:34:00,mnr,12.68
2022-01-31T07:35:00,mnr,14.24
2022-01-31T07:36:00,mnr,13.60
2022-01-31T07:37:00,mnr,13.74
2022-01-31T07:38:00,mnr,13.55
2022-01-31T07:39:00,mnr,15.03
2022-01-31T07:40:00,mnr,13.68
2022-01-31T07:41:00,mnr,13.69
2022-01-31T07:42:00,mnr,14.12
2022-01-31T07:43:00,mnr,14.11
2022-01-31T07:44:00,mnr,14.25
2022-01-31T07:45:00,mnr,13.65
2022-01-31T07:46:00,mnr,13.51
2022-01-31T07:47:00,mnr,13.54
2022-01-31T07:48:00,mnr,13.99
2022-01-31T07:49:00,mnr,14.92
2022-01-31T07:50:00,mnr,14.06
2022-01-31T07:51:00,mnr,13.58
2022-01-31T07:52:00,mnr,13.57
2022-01-31T07:53:00,mnr,13.49
2022-01-31T07:54:00,mnr,13.56
2022-01-31T07:55:00,mnr,14.15
2022-01-31T07:56:00,mnr,14.21
2022-01-31T07:57:00,mnr,14.22
2022-01-31T07:58:00,mnr,14.18
2022-01-31T07:59:00,mnr,14.23
2022-01-31T08:00:00,mnr,14.19
2022-01-31T08:01:00,mnr,14.29
2022-01-31T08:02:00,mnr,14.27
2022-01-31T08:03:00,mnr,14.19
2022-01-31T08:04:00,mnr,14.20
2022-01-31T08:05:00,mnr,14.29
2022-01-31T08:06:00,mnr,14.31
2022-01-31T08:07:00,mnr,14.28
2022-01-31T08:08:00,mnr,14.74
2022-01-31T08:09:00,mnr,14.09
2022-01-31T08:10:00,mnr,14.00
2022-01-31T08:11:00,mnr,14.17
2022-01-31T08:12:00,mnr,13.52
2022-01-31T08:13:00,mnr,13.41
2022-01-31T08:14:00,mnr,13.24
2022-01-31T08:15:00,mnr,13.20
2022-01-31T08:16:00,mnr,13.88
2022-01-31T08:17:00,mnr,13.45
2022-01-31T08:18:00,mnr,13.22
2022-01-31T08:19:00,mnr,14.16
2022-01-31T08:20:00,mnr,13.40
2022-01-31T08:21:00,mnr,13.62
2022-01-31T08:22:00,mnr,13.45
2022-01-31T08:23:00,mnr,13.03
2022-01-31T08:24:00,mnr,13.16
2022-01-31T08:25:00,mnr,13.09
2022-01-31T08:26:00,mnr,13.31
2022-01-31T08:27:00,mnr,13.07
2022-01-31T08:28:00,mnr,13.05
2022-01-31T08:29:00,mnr,13.03
2022-01-31T08:30:00,mnr,13.14
2022-01-31T08:31:00,mnr,13.17
2022-01-31T08:32:00,mnr,13.17
2022-01-31T08:33:00,mnr,13.25
2022-01-31T08:34:00,mnr,13.24
2022-01-31T08:35:00,mnr,13.31
2022-01-31T08:36:00,mnr,13.23
2022-01-31T08:37:00,mnr,14.35
2022-01-31T08:38:00,mnr,13.27
2022-01-31T08:39:00,mnr,13.26
2022-01-31T08:40:00,mnr,13.32
2022-01-31T08:41:00,mnr,13.54
2022-01-31T08:42:00,mnr,13.84
2022-01-31T08:43:00,mnr,14.59
2022-01-31T08:44:00,mnr,13.81
2022-01-31T08:45:00,mnr,13.34
2022-01-31T08:46:00,mnr,14.56
2022-01-31T08:47:00,mnr,13.26
2022-01-31T08:48:00,mnr,13.30
2022-01-31T08:49:00,mnr,15.34
2022-01-31T08:50:00,mnr,13.85
2022-01-31T08:51:00,mnr,14.19
2022-01-31T08:52:00,mnr,13.79
2022-01-31T08:53:00,mnr,13.72
2022-01-31T08:54:00,mnr,13.73
2022-01-31T08:55:00,mnr,14.11
2022-01-31T08:56:00,mnr,16.43
2022-01-31T08:57:00,mnr,16.63
2022-01-31T08:58:00,mnr,17.95
2022-01-31T08:59:00,mnr,17.02
2022-01-31T09:00:00,mnr,18.24
2022-01-31T09:01:00,mnr,18.25
2022-01-31T09:02:00,mnr,17.32
2022-01-31T09:03:00,mnr,18.72
2022-01-31T09:04:00,mnr,18.39
2022-01-31T09:05:00,mnr,18.80
2022-01-31T09:06:00,mnr,18.22
2022-01-31T09:07:00,mnr,18.20
2022-01-31T09:08:00,mnr,18.18
2022-01-31T09:09:00,mnr,19.98
2022-01-31T09:10:00,mnr,19.28
2022-01-31T09:11:00,mnr,19.25
2022-01-31T09:12:00,mnr,18.22
2022-01-31T09:13:00,mnr,18.24
2022-01-31T09:14:00,mnr,18.32
2022-01-31T09:15:00,mnr,18.28
2022-01-31T09:16:00,mnr,19.11
2022-01-31T09:17:00,mnr,18.32
2022-01-31T09:18:00,mnr,18.39
2022-01-31T09:19:00,mnr,18.37
2022-01-31T09:20:00,mnr,19.57
2022-01-31T09:21:00,mnr,18.40
2022-01-31T09:22:00,mnr,18.48
2022-01-31T09:23:00,mnr,19.05
2022-01-31T09:24:00,mnr,18.36
2022-01-31T09:25:00,mnr,18.45
2022-01-31T09:26:00,mnr,18.41
2022-01-31T09:27:00,mnr,18.40
2022-01-31T09:28:00,mnr,18.84
2022-01-31T09:29:00,mnr,19.60
2022-01-31T09:30:00,mnr,18.86
2022-01-31T09:31:00,mnr,18.36
2022-01-31T09:32:00,mnr,18.89
2022-01-31T09:33:00,mnr,19.03
2022-01-31T09:34:00,mnr,18.36
2022-01-31T09:35:00,mnr,18.42
2022-01-31T09:36:00,mnr,18.38
2022-01-31T09:37:00,mnr,18.34
2022-01-31T09:38:00,mnr,18.31
2022-01-31T09:39:00,mnr,18.43
2022-01-31T09:40:00,mnr,19.03
2022-01-31T09:41:00,mnr,18.38
2022-01-31T09:42:00,mnr,18.33
2022-01-31T09:43:00,mnr,18.37
2022-01-31T09:44:00,mnr,19.51
2022-01-31T09:45:00,mnr,18.37
2022-01-31T09:46:00,mnr,18.30
2022-01-31T09:47:00,mnr,18.46
2022-01-31T09:48:00,mnr,18.27
2022-01-31T09:49:00,mnr,19.83
2022-01-31T09:50:00,mnr,20.42
2022-01-31T09:51:00,mnr,18.74
2022-01-31T09:52:00,mnr,18.23
2022-01-31T09:53:00,mnr,17.41
2022-01-31T09:54:00,mnr,16.76
2022-01-31T09:55:00,mnr,16.94
2022-01-31T09:56:00,mnr,17.41
2022-01-31T09:57:00,mnr,17.95
2022-01-31T09:58:00,mnr,17.49
2022-01-31T09:59:00,mnr,18.24
2022-01-31T10:00:00,mnr,18.20
2022-01-31T10:01:00,mnr,18.26
2022-01-31T10:02:00,mnr,18.28
2022-01-31T10:03:00,mnr,18.59
2022-01-31T10:04:00,mnr,18.65
2022-01-31T10:05:00,mnr,18.82
2022-01-31T10:06:00,mnr,19.18
2022-01-31T10:07:00,mnr,18.68
2022-01-31T10:08:00,mnr,18.52
2022-01-31T10:09:00,mnr,18.58
2022-01-31T10:10:00,mnr,18.50
2022-01-31T10:11:00,mnr,18.93
2022-01-31T10:12:00,mnr,18.52
2022-01-31T10:13:00,mnr,18.58
2022-01-31T10:14:00,mnr,18.34
2022-01-31T10:15:00,mnr,18.25
2022-01-31T10:16:00,mnr,18.12
2022-01-31T10:17:00,mnr,17.86
2022-01-31T10:18:00,mnr,18.02
2022-01-31T10:19:00,mnr,19.35
2022-01-31T10:20:00,mnr,18.40
2022-01-31T10:21:00,mnr,18.01
2022-01-31T10:22:00,mnr,19.48
2022-01-31T10:23:00,mnr,19.55
2022-01-31T10:24:00,mnr,18.11
2022-01-31T10:25:00,mnr,17.84
2022-01-31T10:26:00,mnr,17.91
2022-01-31T10:27:00,mnr,19.15
2022-01-31T10:28:00,mnr,17.82
2022-01-31T10:29:00,mnr,17.85
2022-01-31T10:30:00,mnr,17.80
2022-01-31T10:31:00,mnr,17.69
2022-01-31T10:32:00,mnr,17.68
2022-01-31T10:33:00,mnr,17.77
2022-01-31T10:34:00,mnr,18.50
2022-01-31T10:35:00,mnr,17.82
2022-01-31T10:36:00,mnr,17.89
2022-01-31T10:37:00,mnr,17.77
2022-01-31T10:38:00,mnr,17.84
2022-01-31T10:39:00,mnr,19.40
2022-01-31T10:40:00,mnr,18.08
2022-01-31T10:41:00,mnr,17.76
2022-01-31T10:42:00,mnr,17.34
2022-01-31T10:43:00,mnr,17.53
2022-01-31T10:44:00,mnr,18.53
2022-01-31T10:45:00,mnr,17.86
2022-01-31T10:46:00,mnr,17.46
2022-01-31T10:47:00,mnr,17.92
2022-01-31T10:48:00,mnr,18.62
2022-01-31T10:49:00,mnr,18.22
2022-01-31T10:50:00,mnr,15.80
2022-01-31T10:51:00,mnr,17.56
2022-01-31T10:52:00,mnr,17.58
2022-01-31T10:53:00,mnr,17.57
2022-01-31T10:54:00,mnr,18.34
2022-01-31T10:55:00,mnr,18.44
2022-01-31T10:56:00,mnr,19.18
2022-01-31T10:57:00,mnr,18.19
2022-01-31T10:58:00,mnr,17.98
2022-01-31T10:59:00,mnr,18.55
2022-01-31T11:00:00,mnr,18.69
2022-01-31T11:01:00,mnr,30.08
2022-01-31T11:02:00,mnr,17.96
2022-01-31T11:03:00,mnr,17.84
2022-01-31T11:04:00,mnr,17.81
2022-01-31T11:05:00,mnr,18.63
2022-01-31T11:06:00,mnr,18.70
2022-01-31T11:07:00,mnr,17.82
2022-01-31T11:08:00,mnr,18.44
2022-01-31T11:09:00,mnr,15.58
2022-01-31T11:10:00,mnr,18.53
2022-01-31T11:11:00,mnr,17.78
2022-01-31T11:12:00,mnr,17.86
2022-01-31T11:13:00,mnr,18.25
2022-01-31T11:14:00,mnr,18.74
2022-01-31T11:15:00,mnr,18.75
2022-01-31T11:16:00,mnr,17.72
2022-01-31T11:17:00,mnr,18.28
2022-01-31T11:18:00,mnr,17.51
2022-01-31T11:19:00,mnr,17.38
2022-01-31T11:20:00,mnr,18.48
2022-01-31T11:21:00,mnr,17.32
2022-01-31T11:22:00,mnr,17.30
2022-01-31T11:23:00,mnr,17.25
2022-01-31T11:24:00,mnr,17.18
2022-01-31T11:25:00,mnr,17.20
2022-01-31T11:26:00,mnr,17.21
2022-01-31T11:27:00,mnr,17.28
2022-01-31T11:28:00,mnr,17.27
2022-01-31T11:29:00,mnr,17.44
2022-01-31T11:30:00,mnr,18.72
2022-01-31T11:31:00,mnr,17.73
2022-01-31T11:32:00,mnr,17.23
2022-01-31T11:33:00,mnr,17.06
2022-01-31T11:34:00,mnr,17.10
2022-01-31T11:35:00,mnr,17.09
2022-01-31T11:36:00,mnr,17.01
2022-01-31T11:37:00,mnr,17.00
2022-01-31T11:38:00,mnr,16.98
2022-01-31T11:39:00,mnr,16.86
2022-01-31T11:40:00,mnr,17.02
2022-01-31T11:41:00,mnr,17.00
2022-01-31T11:42:00,mnr,17.79
2022-01-31T11:43:00,mnr,16.98
2022-01-31T11:44:00,mnr,17.06
2022-01-31T11:45:00,mnr,17.21
2022-01-31T11:46:00,mnr,17.91
2022-01-31T11:47:00,mnr,17.35
2022-01-31T11:48:00,mnr,17.43
2022-01-31T11:49:00,mnr,17.35
2022-01-31T11:50:00,mnr,17.18
2022-01-31T11:51:00,mnr,17.18
2022-01-31T11:52:00,mnr,17.21
2022-01-31T11:53:00,mnr,17.27
2022-01-31T11:54:00,mnr,16.96
2022-01-31T11:55:00,mnr,16.99
2022-01-31T11:56:00,mnr,17.07
2022-01-31T11:57:00,mnr,17.14
2022-01-31T11:58:00,mnr,17.17
2022-01-31T11:59:00,mnr,17.61
2022-01-31T12:00:00,mnr,17.70
2022-01-31T12:01:00,mnr,16.90
2022-01-31T12:02:00,mnr,17.66
2022-01-31T12:03:00,mnr,17.01
2022-01-31T12:04:00,mnr,17.79
2022-01-31T12:05:00,mnr,17.37
2022-01-31T12:06:00,mnr,17.32
2022-01-31T12:07:00,mnr,17.33
2022-01-31T12:08:00,mnr,17.38
2022-01-31T12:09:00,mnr,17.42
2022-01-31T12:10:00,mnr,17.25
2022-01-31T12:11:00,mnr,17.31
2022-01-31T12:12:00,mnr,18.86
2022-01-31T12:13:00,mnr,17.72
2022-01-31T12:14:00,mnr,18.35
2022-01-31T12:15:00,mnr,19.75
2022-01-31T12:16:00,mnr,19.08
2022-01-31T12:17:00,mnr,19.38
2022-01-31T12:18:00,mnr,19.08
2022-01-31T12:19:00,mnr,18.05
2022-01-31T12:20:00,mnr,17.77
2022-01-31T12:21:00,mnr,17.32
2022-01-31T12:22:00,mnr,17.44
2022-01-31T12:23:00,mnr,17.31
2022-01-31T12:24:00,mnr,17.56
2022-01-31T12:25:00,mnr,17.44
2022-01-31T12:26:00,mnr,17.98
2022-01-31T12:27:00,mnr,19.06
2022-01-31T12:28:00,mnr,20.09
2022-01-31T12:29:00,mnr,19.35
2022-01-31T12:30:00,mnr,20.08
2022-01-31T12:31:00,mnr,17.79
2022-01-31T12:32:00,mnr,17.89
2022-01-31T12:33:00,mnr,17.95
2022-01-31T12:34:00,mnr,17.36
2022-01-31T12:35:00,mnr,18.38
2022-01-31T12:36:00,mnr,16.93
2022-01-31T12:37:00,mnr,16.91
2022-01-31T12:38:00,mnr,16.89
2022-01-31T12:39:00,mnr,16.95
2022-01-31T12:40:00,mnr,17.40
2022-01-31T12:41:00,mnr,17.65
2022-01-31T12:42:00,mnr,17.11
2022-01-31T12:43:00,mnr,16.96
2022-01-31T12:44:00,mnr,15.12
2022-01-31T12:45:00,mnr,18.58
2022-01-31T12:46:00,mnr,18.38
2022-01-31T12:47:00,mnr,18.81
2022-01-31T12:48:00,mnr,18.21
2022-01-31T12:49:00,mnr,18.78
2022-01-31T12:50:00,mnr,17.66
2022-01-31T12:51:00,mnr,17.09
2022-01-31T12:52:00,mnr,17.77
2022-01-31T12:53:00,mnr,17.23
2022-01-31T12:54:00,mnr,17.42
2022-01-31T12:55:00,mnr,17.27
2022-01-31T12:56:00,mnr,17.18
2022-01-31T12:57:00,mnr,17.27
2022-01-31T12:58:00,mnr,17.77
2022-01-31T12:59:00,mnr,17.40
2022-01-31T13:00:00,mnr,17.47
2022-01-31T13:01:00,mnr,16.11
2022-01-31T13:02:00,mnr,16.10
2022-01-31T13:03:00,mnr,16.68
2022-01-31T13:04:00,mnr,16.09
2022-01-31T13:05:00,mnr,15.69
2022-01-31T13:06:00,mnr,15.69
2022-01-31T13:07:00,mnr,16.79
2022-01-31T13:08:00,mnr,16.63
2022-01-31T13:09:00,mnr,15.66
2022-01-31T13:10:00,mnr,15.38
2022-01-31T13:11:00,mnr,18.22
2022-01-31T13:12:00,mnr,17.25
2022-01-31T13:13:00,mnr,16.43
2022-01-31T13:14:00,mnr,15.72
2022-01-31T13:15:00,mnr,15.87
2022-01-31T13:16:00,mnr,16.34
2022-01-31T13:17:00,mnr,15.75
2022-01-31T13:18:00,mnr,15.66
2022-01-31T13:19:00,mnr,15.79
2022-01-31T13:20:00,mnr,17.18
2022-01-31T13:21:00,mnr,17.24
2022-01-31T13:22:00,mnr,17.60
2022-01-31T13:23:00,mnr,17.50
2022-01-31T13:24:00,mnr,15.85
2022-01-31T13:25:00,mnr,15.95
2022-01-31T13:26:00,mnr,15.78
2022-01-31T13:27:00,mnr,15.78